CAL186 RCTP-RKPK

Flight info

Callsign CAL186
Flight time 1h 47m
Altitude 37000
Route PIANO1B PIANO L3 SALMI B576 SOSDO Y571 ANROD KEVOX3
Aircraft B738/M-ABDE3FGJ3J4LOP1RVWY/LB2

Departure

Time 2026-05-07 12:09
Airport Taiwan Taoyuan International Airport (RCTP)

Arrival

Time 2026-05-07 13:56
Airport Gimhae International Airport (RKPK)
Time Latitude Longitude Altitude Speed Heading
2026-05-07 11:42 25.08243 121.23533 116 ft 0 kts 139°
2026-05-07 11:56 25.08243 121.23532 116 ft 1 kts 140°
2026-05-07 11:56 25.08255 121.23521 116 ft 2 kts 139°
2026-05-07 11:57 25.08266 121.23511 116 ft 2 kts 140°
2026-05-07 11:57 25.08278 121.23500 116 ft 2 kts 139°
2026-05-07 11:57 25.08289 121.23489 116 ft 2 kts 140°
2026-05-07 11:57 25.08300 121.23479 116 ft 2 kts 139°
2026-05-07 11:58 25.08312 121.23468 116 ft 2 kts 139°
2026-05-07 11:58 25.08323 121.23457 116 ft 2 kts 140°
2026-05-07 11:58 25.08335 121.23446 116 ft 2 kts 124°
2026-05-07 11:58 25.08339 121.23431 116 ft 2 kts 85°
2026-05-07 11:59 25.08334 121.23415 116 ft 2 kts 48°
2026-05-07 11:59 25.08327 121.23408 116 ft 0 kts 46°
2026-05-07 11:59 25.08325 121.23406 116 ft 0 kts 47°
2026-05-07 12:01 25.08326 121.23407 116 ft 0 kts 47°
2026-05-07 12:01 25.08332 121.23414 116 ft 1 kts 47°
2026-05-07 12:01 25.08342 121.23426 116 ft 2 kts 48°
2026-05-07 12:01 25.08358 121.23446 116 ft 5 kts 50°
2026-05-07 12:02 25.08388 121.23483 116 ft 7 kts 37°
2026-05-07 12:02 25.08447 121.23473 116 ft 10 kts 323°
2026-05-07 12:02 25.08466 121.23415 116 ft 8 kts 231°
2026-05-07 12:02 25.08424 121.23364 116 ft 9 kts 229°
2026-05-07 12:03 25.08375 121.23302 116 ft 11 kts 229°
2026-05-07 12:03 25.08317 121.23229 116 ft 13 kts 229°
2026-05-07 12:03 25.08250 121.23144 116 ft 15 kts 228°
2026-05-07 12:03 25.08175 121.23047 116 ft 17 kts 229°
2026-05-07 12:04 25.08091 121.22940 116 ft 19 kts 229°
2026-05-07 12:04 25.07998 121.22823 116 ft 21 kts 229°
2026-05-07 12:04 25.07896 121.22694 116 ft 22 kts 229°
2026-05-07 12:04 25.07788 121.22555 116 ft 24 kts 229°
2026-05-07 12:05 25.07670 121.22406 116 ft 26 kts 229°
2026-05-07 12:05 25.07546 121.22249 116 ft 27 kts 229°
2026-05-07 12:05 25.07423 121.22092 116 ft 26 kts 229°
2026-05-07 12:05 25.07306 121.21942 116 ft 25 kts 229°
2026-05-07 12:06 25.07200 121.21809 116 ft 19 kts 229°
2026-05-07 12:06 25.07170 121.21726 116 ft 9 kts 298°
2026-05-07 12:06 25.07211 121.21685 116 ft 3 kts 321°
2026-05-07 12:06 25.07228 121.21670 116 ft 3 kts 321°
2026-05-07 12:07 25.07245 121.21654 116 ft 3 kts 321°
2026-05-07 12:07 25.07263 121.21639 116 ft 3 kts 320°
2026-05-07 12:07 25.07281 121.21622 116 ft 4 kts 320°
2026-05-07 12:07 25.07305 121.21623 116 ft 3 kts 40°
2026-05-07 12:08 25.07341 121.21665 116 ft 15 kts 48°
2026-05-07 12:08 25.07581 121.21970 116 ft 89 kts 48°
2026-05-07 12:08 25.08137 121.22673 116 ft 151 kts 49°
2026-05-07 12:08 25.08924 121.23672 374 ft 179 kts 49°
2026-05-07 12:09 25.09748 121.24701 1103 ft 182 kts 49°
2026-05-07 12:09 25.10611 121.25754 1733 ft 190 kts 50°
2026-05-07 12:09 25.11515 121.26872 2137 ft 205 kts 49°
2026-05-07 12:09 25.12505 121.28112 2504 ft 225 kts 50°
2026-05-07 12:10 25.13631 121.29413 2966 ft 241 kts 40°
2026-05-07 12:10 25.15179 121.30244 3361 ft 259 kts
2026-05-07 12:10 25.16983 121.29981 3869 ft 269 kts 336°
2026-05-07 12:10 25.18703 121.29098 4501 ft 276 kts 332°
2026-05-07 12:11 25.20503 121.28427 5404 ft 274 kts 348°
2026-05-07 12:11 25.22430 121.28252 6067 ft 283 kts 356°
2026-05-07 12:11 25.24399 121.28259 6845 ft 285 kts 358°
2026-05-07 12:11 25.26372 121.28277 7577 ft 288 kts 357°
2026-05-07 12:12 25.28411 121.28284 8212 ft 295 kts 357°
2026-05-07 12:12 25.30423 121.28283 9132 ft 292 kts 356°
2026-05-07 12:12 25.32489 121.28263 9815 ft 298 kts 356°
2026-05-07 12:12 25.34577 121.28228 10517 ft 304 kts 355°
2026-05-07 12:13 25.36762 121.28307 10958 ft 322 kts
2026-05-07 12:13 25.38998 121.28998 11366 ft 344 kts 23°
2026-05-07 12:13 25.40978 121.30585 11749 ft 365 kts 44°
2026-05-07 12:13 25.42521 121.32870 12273 ft 376 kts 53°
2026-05-07 12:14 25.44123 121.35167 12982 ft 378 kts 48°
2026-05-07 12:14 25.45842 121.37344 13630 ft 383 kts 46°
2026-05-07 12:14 25.47641 121.39541 14370 ft 386 kts 45°
2026-05-07 12:14 25.49466 121.41748 14981 ft 393 kts 45°
2026-05-07 12:15 25.51284 121.44014 15651 ft 398 kts 46°
2026-05-07 12:15 25.53108 121.46335 16344 ft 401 kts 47°
2026-05-07 12:15 25.54960 121.48704 16957 ft 407 kts 47°
2026-05-07 12:15 25.56803 121.51067 17617 ft 410 kts 47°
2026-05-07 12:16 25.58670 121.53462 18256 ft 413 kts 47°
2026-05-07 12:16 25.60554 121.55879 18823 ft 418 kts 47°
2026-05-07 12:16 25.62476 121.58343 19505 ft 419 kts 47°
2026-05-07 12:16 25.64373 121.60777 20059 ft 424 kts 47°
2026-05-07 12:17 25.66300 121.63250 20670 ft 426 kts 47°
2026-05-07 12:17 25.68260 121.65765 21179 ft 431 kts 47°
2026-05-07 12:17 25.70226 121.68288 21666 ft 436 kts 47°
2026-05-07 12:17 25.72208 121.70834 22254 ft 437 kts 47°
2026-05-07 12:18 25.74207 121.73405 22733 ft 441 kts 47°
2026-05-07 12:18 25.76222 121.75996 23263 ft 444 kts 47°
2026-05-07 12:18 25.78242 121.78580 23736 ft 448 kts 46°
2026-05-07 12:18 25.80353 121.81139 24237 ft 450 kts 43°
2026-05-07 12:19 25.82664 121.83491 24757 ft 451 kts 37°
2026-05-07 12:19 25.85119 121.85646 25118 ft 456 kts 34°
2026-05-07 12:19 25.87688 121.87728 25710 ft 455 kts 32°
2026-05-07 12:19 25.90280 121.89766 26051 ft 462 kts 32°
2026-05-07 12:20 25.92933 121.91840 26560 ft 463 kts 32°
2026-05-07 12:20 25.95555 121.93902 27016 ft 466 kts 32°
2026-05-07 12:20 25.98187 121.95986 27441 ft 470 kts 32°
2026-05-07 12:20 26.00849 121.98108 27951 ft 471 kts 32°
2026-05-07 12:21 26.03552 122.00270 28307 ft 476 kts 32°
2026-05-07 12:21 26.06234 122.02387 28703 ft 479 kts 32°
2026-05-07 12:21 26.08979 122.04529 29107 ft 482 kts 31°
2026-05-07 12:21 26.11755 122.06686 29653 ft 481 kts 31°
2026-05-07 12:22 26.14466 122.08794 30317 ft 478 kts 31°
2026-05-07 12:22 26.17208 122.10931 30994 ft 474 kts 31°
2026-05-07 12:22 26.19866 122.13004 31553 ft 472 kts 31°
2026-05-07 12:22 26.22567 122.15115 32034 ft 472 kts 31°
2026-05-07 12:23 26.25267 122.17228 32482 ft 472 kts 31°
2026-05-07 12:23 26.27968 122.19344 33008 ft 470 kts 31°
2026-05-07 12:23 26.30622 122.21426 33573 ft 468 kts 30°
2026-05-07 12:23 26.33287 122.23520 34159 ft 464 kts 30°
2026-05-07 12:24 26.35905 122.25582 34878 ft 458 kts 29°
2026-05-07 12:24 26.38490 122.27621 35515 ft 452 kts 29°
2026-05-07 12:24 26.41044 122.29636 36025 ft 450 kts 28°
2026-05-07 12:24 26.43604 122.31651 36356 ft 450 kts 28°
2026-05-07 12:25 26.46167 122.33667 36661 ft 451 kts 28°
2026-05-07 12:25 26.48726 122.35682 36951 ft 452 kts 28°
2026-05-07 12:25 26.51300 122.37709 36946 ft 452 kts 28°
2026-05-07 12:26 26.56418 122.41753 36949 ft 447 kts 27°
2026-05-07 12:26 26.61490 122.45761 36947 ft 450 kts 28°
2026-05-07 12:27 26.66596 122.49802 36944 ft 446 kts 27°
2026-05-07 12:27 26.71683 122.53830 36946 ft 449 kts 27°
2026-05-07 12:28 26.76774 122.57864 36940 ft 449 kts 27°
2026-05-07 12:28 26.81890 122.61926 36934 ft 448 kts 27°
2026-05-07 12:29 26.86963 122.65962 36931 ft 448 kts 27°
2026-05-07 12:29 26.92101 122.70048 36925 ft 452 kts 28°
2026-05-07 12:30 26.97201 122.74113 36928 ft 451 kts 27°
2026-05-07 12:30 27.02328 122.78201 36928 ft 450 kts 27°
2026-05-07 12:31 27.07458 122.82296 36924 ft 452 kts 27°
2026-05-07 12:31 27.12605 122.86414 36931 ft 453 kts 28°
2026-05-07 12:32 27.17722 122.90516 36925 ft 450 kts 27°
2026-05-07 12:32 27.22836 122.94634 36940 ft 454 kts 29°
2026-05-07 12:33 27.30223 123.01485 36948 ft 461 kts 34°
2026-05-07 12:33 27.35047 123.06230 36947 ft 459 kts 34°
2026-05-07 12:34 27.39840 123.10922 36948 ft 458 kts 33°
2026-05-07 12:34 27.44665 123.15597 36948 ft 459 kts 33°
2026-05-07 12:35 27.49573 123.20332 36945 ft 463 kts 33°
2026-05-07 12:35 27.54472 123.25053 36946 ft 463 kts 33°
2026-05-07 12:36 27.59351 123.29758 36948 ft 462 kts 33°
2026-05-07 12:36 27.64231 123.34471 36947 ft 461 kts 33°
2026-05-07 12:37 27.69136 123.39206 36947 ft 462 kts 32°
2026-05-07 12:37 27.74010 123.43908 36948 ft 466 kts 33°
2026-05-07 12:38 27.78949 123.48690 36947 ft 464 kts 33°
2026-05-07 12:38 27.83858 123.53448 36954 ft 465 kts 33°
2026-05-07 12:39 27.88751 123.58192 36959 ft 464 kts 33°
2026-05-07 12:39 27.93665 123.62969 36961 ft 465 kts 33°
2026-05-07 12:40 27.98560 123.67733 36967 ft 465 kts 33°
2026-05-07 12:40 28.03506 123.72547 36967 ft 469 kts 33°
2026-05-07 12:41 28.08437 123.77363 36967 ft 467 kts 33°
2026-05-07 12:41 28.13338 123.82154 36967 ft 466 kts 34°
2026-05-07 12:42 28.18272 123.86980 36966 ft 468 kts 33°
2026-05-07 12:42 28.23225 123.91824 36963 ft 469 kts 34°
2026-05-07 12:43 28.28114 123.96620 36966 ft 466 kts 34°
2026-05-07 12:43 28.32755 124.01907 36966 ft 476 kts 43°
2026-05-07 12:44 28.36902 124.07857 36967 ft 482 kts 47°
2026-05-07 12:44 28.40843 124.13949 36967 ft 482 kts 48°
2026-05-07 12:45 28.44817 124.20141 36968 ft 483 kts 47°
2026-05-07 12:45 28.48789 124.26301 36969 ft 484 kts 47°
2026-05-07 12:46 28.52774 124.32455 36965 ft 483 kts 47°
2026-05-07 12:46 28.56756 124.38596 36966 ft 483 kts 47°
2026-05-07 12:47 28.60758 124.44760 36967 ft 485 kts 47°
2026-05-07 12:47 28.64749 124.50908 36967 ft 483 kts 46°
2026-05-07 12:48 28.68728 124.57050 36968 ft 483 kts 46°
2026-05-07 12:48 28.72746 124.63246 36969 ft 485 kts 47°
2026-05-07 12:49 28.77043 124.69024 36964 ft 471 kts 33°
2026-05-07 12:49 28.79645 124.71114 36968 ft 455 kts 19°
2026-05-07 12:49 28.82520 124.72591 36976 ft 451 kts 13°
2026-05-07 12:50 28.88434 124.74994 36966 ft 443 kts 10°
2026-05-07 12:50 28.94294 124.77216 36967 ft 446 kts
2026-05-07 12:51 29.00207 124.79486 36968 ft 450 kts 10°
2026-05-07 12:51 29.06090 124.81801 36969 ft 444 kts 11°
2026-05-07 12:52 29.11965 124.84135 36972 ft 447 kts 10°
2026-05-07 12:52 29.17859 124.86481 36971 ft 448 kts 11°
2026-05-07 12:53 29.23790 124.88851 36974 ft 451 kts 11°
2026-05-07 12:53 29.29693 124.91223 36974 ft 450 kts 10°
2026-05-07 12:54 29.35597 124.93597 36975 ft 448 kts 11°
2026-05-07 12:54 29.41505 124.95973 36976 ft 446 kts 11°
2026-05-07 12:55 29.47365 124.98333 36978 ft 451 kts 11°
2026-05-07 12:55 29.53321 125.00729 36975 ft 450 kts 11°
2026-05-07 12:56 29.59210 125.03112 36981 ft 448 kts 11°
2026-05-07 12:56 29.65143 125.05506 36987 ft 451 kts 11°
2026-05-07 12:57 29.71061 125.07897 36990 ft 453 kts 11°
2026-05-07 12:57 29.76991 125.10297 36989 ft 453 kts 11°
2026-05-07 12:58 29.82966 125.12717 36988 ft 454 kts 11°
2026-05-07 12:58 29.88964 125.15145 36988 ft 452 kts 10°
2026-05-07 12:59 29.94921 125.17569 36989 ft 454 kts 11°
2026-05-07 12:59 30.00868 125.19990 36989 ft 453 kts 11°
2026-05-07 13:00 30.06877 125.22446 36992 ft 455 kts 11°
2026-05-07 13:00 30.12779 125.24872 36987 ft 453 kts 11°
2026-05-07 13:01 30.18734 125.27317 36985 ft 451 kts 11°
2026-05-07 13:01 30.24676 125.29756 36989 ft 451 kts 10°
2026-05-07 13:02 30.30628 125.32197 36986 ft 454 kts 10°
2026-05-07 13:02 30.36645 125.34667 36980 ft 454 kts 10°
2026-05-07 13:03 30.42611 125.37128 36982 ft 454 kts 11°
2026-05-07 13:03 30.48578 125.39585 36980 ft 457 kts 11°
2026-05-07 13:04 30.54573 125.42072 36981 ft 455 kts 11°
2026-05-07 13:04 30.60588 125.44556 36985 ft 457 kts 10°
2026-05-07 13:05 30.66548 125.47024 36979 ft 455 kts 11°
2026-05-07 13:05 30.72551 125.49509 36976 ft 456 kts 11°
2026-05-07 13:06 30.78572 125.52011 36973 ft 458 kts 11°
2026-05-07 13:06 30.84577 125.54504 36975 ft 460 kts 11°
2026-05-07 13:07 30.90593 125.57014 36972 ft 459 kts 11°
2026-05-07 13:07 30.96610 125.59525 36967 ft 455 kts 11°
2026-05-07 13:08 31.02616 125.62023 36969 ft 459 kts 10°
2026-05-07 13:08 31.08621 125.64532 36971 ft 458 kts 11°
2026-05-07 13:09 31.14637 125.67049 36967 ft 459 kts 11°
2026-05-07 13:09 31.20665 125.69576 36973 ft 461 kts 11°
2026-05-07 13:10 31.26690 125.72107 36970 ft 459 kts 11°
2026-05-07 13:10 31.32693 125.74635 36977 ft 459 kts 11°
2026-05-07 13:11 31.38740 125.77174 36973 ft 462 kts 11°
2026-05-07 13:11 31.44778 125.79720 36973 ft 457 kts 11°
2026-05-07 13:12 31.50747 125.82243 36968 ft 457 kts 11°
2026-05-07 13:12 31.56774 125.84789 36971 ft 461 kts 11°
2026-05-07 13:13 31.62784 125.87329 36968 ft 458 kts 12°
2026-05-07 13:13 31.68806 125.89861 36974 ft 460 kts 12°
2026-05-07 13:14 31.74883 125.92408 36973 ft 462 kts 11°
2026-05-07 13:14 31.80856 125.94927 36968 ft 457 kts 12°
2026-05-07 13:15 31.86906 125.97476 36971 ft 460 kts 12°
2026-05-07 13:15 31.92903 126.00015 36970 ft 459 kts 11°
2026-05-07 13:16 31.98912 126.02558 36966 ft 459 kts 12°
2026-05-07 13:16 32.04964 126.05124 36973 ft 459 kts 12°
2026-05-07 13:17 32.10892 126.07636 36974 ft 460 kts 12°
2026-05-07 13:17 32.16954 126.10207 36970 ft 458 kts 12°
2026-05-07 13:18 32.22995 126.12770 36963 ft 461 kts 12°
2026-05-07 13:18 32.29014 126.15330 36968 ft 459 kts 12°
2026-05-07 13:19 32.35037 126.17893 36965 ft 459 kts 12°
2026-05-07 13:19 32.41050 126.20456 36969 ft 460 kts 12°
2026-05-07 13:20 32.47111 126.23045 36967 ft 462 kts 12°
2026-05-07 13:20 32.53138 126.25620 36967 ft 462 kts 12°
2026-05-07 13:21 32.59195 126.28212 36967 ft 462 kts 12°
2026-05-07 13:21 32.65247 126.30808 36970 ft 461 kts 12°
2026-05-07 13:22 32.71268 126.33398 36961 ft 461 kts 12°
2026-05-07 13:22 32.77320 126.36001 36966 ft 461 kts 12°
2026-05-07 13:23 32.83378 126.38612 36966 ft 463 kts 13°
2026-05-07 13:23 32.89434 126.41227 36963 ft 461 kts 12°
2026-05-07 13:24 32.95473 126.43846 36958 ft 466 kts 14°
2026-05-07 13:24 33.01369 126.47261 36958 ft 475 kts 27°
2026-05-07 13:25 33.06628 126.52054 36956 ft 481 kts 35°
2026-05-07 13:25 33.11689 126.57362 36962 ft 482 kts 37°
2026-05-07 13:26 33.16703 126.62730 36956 ft 483 kts 36°
2026-05-07 13:26 33.21700 126.68047 36957 ft 483 kts 37°
2026-05-07 13:27 33.26745 126.73361 36961 ft 483 kts 36°
2026-05-07 13:27 33.31810 126.78671 36956 ft 484 kts 36°
2026-05-07 13:28 33.36846 126.83941 36950 ft 483 kts 36°
2026-05-07 13:28 33.41917 126.89250 36959 ft 483 kts 36°
2026-05-07 13:29 33.46975 126.94553 36953 ft 485 kts 36°
2026-05-07 13:29 33.52057 126.99889 36952 ft 484 kts 36°
2026-05-07 13:30 33.57109 127.05220 36950 ft 484 kts 37°
2026-05-07 13:30 33.61854 127.10938 36953 ft 489 kts 43°
2026-05-07 13:31 33.66418 127.17114 36776 ft 490 kts 44°
2026-05-07 13:31 33.68643 127.20184 36334 ft 485 kts 45°
2026-05-07 13:31 33.70835 127.23208 35790 ft 482 kts 44°
2026-05-07 13:32 33.73036 127.26228 35162 ft 480 kts 44°
2026-05-07 13:32 33.75233 127.29227 34513 ft 479 kts 44°
2026-05-07 13:32 33.77427 127.32212 34052 ft 473 kts 44°
2026-05-07 13:32 33.79575 127.35129 33579 ft 469 kts 44°
2026-05-07 13:33 33.81731 127.38052 33102 ft 465 kts 44°
2026-05-07 13:33 33.83883 127.40961 32606 ft 462 kts 44°
2026-05-07 13:33 33.86010 127.43832 32103 ft 459 kts 44°
2026-05-07 13:33 33.88129 127.46693 31606 ft 456 kts 44°
2026-05-07 13:34 33.90212 127.49507 31114 ft 453 kts 44°
2026-05-07 13:34 33.94384 127.55157 30123 ft 447 kts 45°
2026-05-07 13:34 33.96451 127.57955 29633 ft 445 kts 45°
2026-05-07 13:35 33.98490 127.60720 29149 ft 442 kts 44°
2026-05-07 13:35 34.00518 127.63471 28668 ft 439 kts 45°
2026-05-07 13:35 34.02563 127.66248 28172 ft 437 kts 45°
2026-05-07 13:35 34.04566 127.68969 27696 ft 433 kts 45°
2026-05-07 13:36 34.06563 127.71687 27216 ft 431 kts 45°
2026-05-07 13:36 34.08529 127.74365 26743 ft 428 kts 45°
2026-05-07 13:36 34.10504 127.77056 26263 ft 425 kts 45°
2026-05-07 13:36 34.12434 127.79688 25791 ft 422 kts 45°
2026-05-07 13:37 34.14378 127.82340 25315 ft 419 kts 45°
2026-05-07 13:37 34.16304 127.84972 24845 ft 417 kts 44°
2026-05-07 13:37 34.18223 127.87597 24374 ft 414 kts 45°
2026-05-07 13:37 34.20099 127.90163 23922 ft 411 kts 45°
2026-05-07 13:38 34.21988 127.92748 23462 ft 408 kts 44°
2026-05-07 13:38 34.23851 127.95299 23006 ft 406 kts 45°
2026-05-07 13:38 34.25731 127.97874 22541 ft 404 kts 44°
2026-05-07 13:38 34.27584 128.00413 22082 ft 403 kts 45°
2026-05-07 13:39 34.29424 128.02940 21614 ft 402 kts 45°
2026-05-07 13:39 34.31270 128.05476 21146 ft 400 kts 45°
2026-05-07 13:39 34.33097 128.07988 20692 ft 398 kts 45°
2026-05-07 13:39 34.34907 128.10478 20246 ft 396 kts 45°
2026-05-07 13:40 34.36725 128.12982 19788 ft 393 kts 45°
2026-05-07 13:40 34.38531 128.15471 19345 ft 391 kts 45°
2026-05-07 13:40 34.40311 128.17926 18882 ft 389 kts 45°
2026-05-07 13:40 34.42076 128.20358 18436 ft 386 kts 45°
2026-05-07 13:41 34.43854 128.22813 17996 ft 384 kts 45°
2026-05-07 13:41 34.45618 128.25253 17547 ft 382 kts 45°
2026-05-07 13:41 34.47343 128.27643 17111 ft 379 kts 45°
2026-05-07 13:41 34.49084 128.30057 16659 ft 377 kts 46°
2026-05-07 13:42 34.50814 128.32454 16233 ft 374 kts 46°
2026-05-07 13:42 34.52500 128.34790 15789 ft 372 kts 46°
2026-05-07 13:42 34.54197 128.37143 15334 ft 369 kts 46°
2026-05-07 13:42 34.55884 128.39484 14913 ft 365 kts 46°
2026-05-07 13:43 34.57540 128.41780 14476 ft 362 kts 46°
2026-05-07 13:43 34.59190 128.44072 14043 ft 359 kts 46°
2026-05-07 13:43 34.60830 128.46353 13612 ft 355 kts 47°
2026-05-07 13:43 34.62472 128.48517 13178 ft 350 kts 41°
2026-05-07 13:44 34.64398 128.50317 12753 ft 340 kts 24°
2026-05-07 13:44 34.66550 128.51373 12354 ft 331 kts 12°
2026-05-07 13:44 34.68753 128.52104 11937 ft 326 kts
2026-05-07 13:44 34.70951 128.52763 11572 ft 321 kts
2026-05-07 13:45 34.73104 128.53447 11229 ft 317 kts 10°
2026-05-07 13:45 34.75194 128.54166 10827 ft 315 kts 11°
2026-05-07 13:45 34.77297 128.54927 10430 ft 312 kts 12°
2026-05-07 13:45 34.79353 128.55687 10077 ft 308 kts 12°
2026-05-07 13:46 34.81386 128.56444 9911 ft 296 kts 12°
2026-05-07 13:46 34.83338 128.57173 9641 ft 291 kts 12°
2026-05-07 13:46 34.85274 128.57889 9236 ft 290 kts 12°
2026-05-07 13:46 34.87184 128.58594 8896 ft 288 kts 12°
2026-05-07 13:47 34.89082 128.59450 8537 ft 289 kts 22°
2026-05-07 13:47 34.90746 128.60808 8215 ft 290 kts 37°
2026-05-07 13:47 34.92231 128.62483 7872 ft 289 kts 41°
2026-05-07 13:47 34.93653 128.64191 7539 ft 286 kts 41°
2026-05-07 13:48 34.95080 128.65868 7216 ft 283 kts 40°
2026-05-07 13:48 34.96542 128.67529 6879 ft 289 kts 40°
2026-05-07 13:48 34.98032 128.69191 6534 ft 289 kts 40°
2026-05-07 13:48 34.99445 128.70953 6196 ft 290 kts 50°
2026-05-07 13:49 35.00380 128.73105 5998 ft 283 kts 78°
2026-05-07 13:49 35.00340 128.75400 5837 ft 269 kts 109°
2026-05-07 13:49 34.99559 128.77461 5478 ft 271 kts 123°
2026-05-07 13:49 34.98620 128.79440 5197 ft 265 kts 123°
2026-05-07 13:50 34.97716 128.81381 5102 ft 256 kts 122°
2026-05-07 13:50 34.96899 128.83260 5044 ft 249 kts 117°
2026-05-07 13:50 34.96436 128.85251 4926 ft 244 kts 94°
2026-05-07 13:50 34.96544 128.87314 4663 ft 243 kts 81°
2026-05-07 13:51 34.96807 128.89322 4406 ft 239 kts 81°
2026-05-07 13:51 34.97038 128.91284 4181 ft 228 kts 81°
2026-05-07 13:51 34.97415 128.93149 3980 ft 222 kts 65°
2026-05-07 13:51 34.98291 128.94609 3756 ft 211 kts 34°
2026-05-07 13:52 34.99504 128.95445 3463 ft 193 kts 17°
2026-05-07 13:52 35.00766 128.95862 3093 ft 182 kts 359°
2026-05-07 13:52 35.01994 128.95792 2862 ft 171 kts 346°
2026-05-07 13:52 35.03175 128.95589 2670 ft 174 kts 347°
2026-05-07 13:53 35.04353 128.95436 2403 ft 165 kts 349°
2026-05-07 13:53 35.05488 128.95302 2224 ft 159 kts 348°
2026-05-07 13:53 35.06573 128.95158 1981 ft 154 kts 348°
2026-05-07 13:53 35.07632 128.95020 1756 ft 150 kts 348°
2026-05-07 13:54 35.08674 128.94888 1566 ft 151 kts 348°
2026-05-07 13:54 35.09724 128.94753 1361 ft 151 kts 349°
2026-05-07 13:54 35.10777 128.94618 1159 ft 151 kts 349°
2026-05-07 13:54 35.11833 128.94482 955 ft 151 kts 350°
2026-05-07 13:55 35.12882 128.94347 770 ft 152 kts 350°
2026-05-07 13:55 35.13940 128.94205 556 ft 151 kts 351°
2026-05-07 13:55 35.14975 128.94076 359 ft 150 kts 352°
2026-05-07 13:55 35.16028 128.93942 161 ft 150 kts 353°
2026-05-07 13:56 35.17060 128.93811 28 ft 144 kts 353°
2026-05-07 13:56 35.17905 128.93704 25 ft 93 kts 353°
2026-05-07 13:56 35.18378 128.93684 37 ft 44 kts 19°
2026-05-07 13:56 35.18579 128.93810 31 ft 24 kts 58°
2026-05-07 13:57 35.18606 128.94005 19 ft 19 kts 84°
2026-05-07 13:57 35.18610 128.94095 16 ft 7 kts 109°
2026-05-07 13:57 35.18569 128.94115 16 ft 6 kts 174°
2026-05-07 13:57 35.18525 128.94121 16 ft 5 kts 175°
2026-05-07 13:58 35.18493 128.94125 16 ft 4 kts 175°
2026-05-07 13:58 35.18463 128.94128 16 ft 4 kts 174°
2026-05-07 13:58 35.18419 128.94135 16 ft 8 kts 173°
2026-05-07 13:58 35.18343 128.94145 16 ft 13 kts 174°
2026-05-07 13:59 35.18237 128.94159 15 ft 17 kts 173°
2026-05-07 13:59 35.18102 128.94176 15 ft 21 kts 174°
2026-05-07 13:59 35.17945 128.94196 15 ft 22 kts 173°
2026-05-07 13:59 35.17796 128.94225 15 ft 20 kts 151°
2026-05-07 14:00 35.17721 128.94371 15 ft 19 kts 123°
2026-05-07 14:00 35.17603 128.94429 16 ft 17 kts 175°
2026-05-07 14:00 35.17486 128.94443 17 ft 16 kts 174°
2026-05-07 14:00 35.17376 128.94458 17 ft 15 kts 173°
2026-05-07 14:01 35.17276 128.94470 18 ft 13 kts 174°
2026-05-07 14:01 35.17188 128.94482 18 ft 6 kts 163°
2026-05-07 14:01 35.17175 128.94518 18 ft 3 kts 92°
2026-05-07 14:01 35.17175 128.94540 18 ft 1 kts 91°
2026-05-07 14:02 35.17175 128.94551 18 ft 0 kts 90°
2026-05-07 14:02 35.17175 128.94556 18 ft 0 kts 90°
2026-05-07 14:02 35.17175 128.94560 18 ft 1 kts 90°
2026-05-07 14:02 35.17175 128.94571 18 ft 0 kts 90°